Hourly Data Report for October 12, 2016

All times are specified in Local Standard Time (LST). Add 1 hour to adjust for Daylight Saving Time where and when it is observed.

PETAWAWA AWOS 2
ONTARIO

45°57'00.000" N
77°19'00.000" W
130.10 m
6106396
71625
YWA

Download Data

Hourly Data (October 2016)
Hourly Data Report for October 12, 2016
Temp Definition
°C
Dew Point Temp Definition
°C
Rel Hum Definition
%
Wind Dir Definition
10's deg

Wind Spd Definition
km/h
Visibility Definition
km
Stn Press Definition
kPa
Hmdx Definition


Wind Chill Definition


Weather Definition


TIME
00:00 8.9 6.7 86 16 6 14.5 100.78     LegendNANA
01:00 7.7 5.9 88   0 14.5 100.76     LegendNANA
02:00 10.0 6.7 80 11 11 14.5 100.68     LegendNANA
03:00 5.9 4.2 89 17 4 14.5 100.65     LegendNANA
04:00 6.4 4.1 85 18 4 14.5 100.62     LegendNANA
05:00 2.4 2.4 100 22 4 14.5 100.62     LegendNANA
06:00 4.0 3.3 95 17 7 14.5 100.58     LegendNANA
07:00 8.6 6.4 86 16 7 14.5 100.56     LegendNANA
08:00 9.6 7.0 84 13 11 14.5 100.58     LegendNANA
09:00 11.3 8.9 85 12 13 14.5 100.53     LegendNANA
10:00 13.1 9.3 78 13 17 14.5 100.46     LegendNANA
11:00 15.6 10.8 73 12 13 14.5 100.37     LegendNANA
12:00 19.0 10.1 56 15 20 14.5 100.22     LegendNANA
13:00 20.3 9.2 49 16 19 14.5 100.11     LegendNANA
14:00 21.2 8.8 45 17 11 14.5 100.02     LegendNANA
15:00 21.3 8.6 44 17 15 14.5 99.97     LegendNANA
16:00 21.1 8.6 45 18 11 14.5 99.92     LegendNANA
17:00 19.8 8.4 48 16 11 14.5 99.90     LegendNANA
18:00 18.4 9.1 55 14 11 14.5 99.86     LegendNANA
19:00 17.1 10.5 65 13 19 14.5 99.81     LegendNANA
20:00 16.5 10.9 70 13 15 14.5 99.74     LegendNANA
21:00 15.8 11.8 77 12 13 14.5 99.66     LegendNANA
22:00 15.6 11.7 78 14 17 14.5 99.56     LegendNANA
23:00 15.6 11.8 78 13 19 14.5 99.47     LegendNANA

Notes on Data Quality.

Legend

  • E = Estimated
  • M = Missing
  • NA = Not Available
  • ‡ = Partner data that is not subject to review by the National Climate Archives
Date modified: